Location: ????????
(55.6333°N, 37.7000°E)
Time: 14:28:50
(UTC+00:00)

Cosmos 2297 Rocket - Pass Details

Date: 19 May 2025
Orbit: 837 x 843 km, 71.0° (Epoch: 20 June)

Event Time Altitude Azimuth Distance (km) Brightness Sun altitude
Exits shadow 22:44:27 - 160° (SSE) 2,515 4.2 -12.6°
Reaches altitude 10° 22:44:38 10° 159° (SSE) 2,457 4.2 -12.6°
Maximum altitude 22:49:12 26° 105° (ESE) 1,602 3.7 -12.3°
Drops below altitude 10° 22:53:48 10° 50° (NE) 2,474 5.6 -12.1°
Sets 22:56:36 0° 39° (NE) 3,414 7.0 -12.0°
